AB4PS Weather Reports


time (UTC)temp
F
wind
direction
speed
knots
gust
knots
rain 1hr
in
rain 24hr
in
rain mn
in
humidity
%
barometer
mb
20260503200118 74 208 0.9 0.9 0.00 0.00 0.00 27 1017.9
20260503195615 74 272 2.6 2.6 0.00 0.00 0.00 27 1017.9
20260503195112 74 205 0.9 0.9 0.00 0.00 0.00 30 1018.0
20260503194609 74 312 2.6 2.6 0.00 0.00 0.00 26 1018.2
20260503194104 73 346 0.9 0.9 0.00 0.00 0.00 25 1018.0
20260503193601 73 269 5.2 6.1 0.00 0.00 0.00 26 1018.2
20260503193056 73 248 1.7 2.6 0.00 0.00 0.00 25 1018.4
20260503192553 74 222 1.7 2.6 0.00 0.00 0.00 23 1018.5
20260503192049 73 198 0.9 0.9 0.00 0.00 0.00 24 1018.5
20260503191545 73 178 1.7 1.7 0.00 0.00 0.00 25 1018.7
20260503191042 72 216 0.9 0.9 0.00 0.00 0.00 25 1018.7
20260503190539 73 221 5.2 7.0 0.00 0.00 0.00 23 1018.8
20260503190037 72 239 1.7 1.7 0.00 0.00 0.00 31 1018.9
20260503185533 72 257 0.9 0.9 0.00 0.00 0.00 31 1019.0
20260503185032 72 251 2.6 2.6 0.00 0.00 0.00 32 1019.1
20260503184529 73 193 2.6 3.5 0.00 0.00 0.00 29 1019.1
20260503184026 72 254 1.7 1.7 0.00 0.00 0.00 31 1019.1
20260503183522 71 226 2.6 2.6 0.00 0.00 0.00 33 1019.1
20260503183019 72 247 2.6 2.6 0.00 0.00 0.00 31 1019.2
20260503182518 72 261 2.6 5.2 0.00 0.00 0.00 28 1019.1
20260503182015 72 213 0.9 0.9 0.00 0.00 0.00 32 1019.4
20260503181512 71 215 2.6 2.6 0.00 0.00 0.00 32 1019.4
20260503181008 70 256 1.7 1.7 0.00 0.00 0.00 33 1019.3
20260503180506 70 226 1.7 1.7 0.00 0.00 0.00 34 1019.5
20260503180003 71 195 0.9 0.9 0.00 0.00 0.00 34 1019.5
20260503175501 70 132 1.7 2.6 0.00 0.00 0.00 33 1019.6
20260503174957 70 325 1.7 2.6 0.00 0.00 0.00 35 1019.6
20260503174455 70 254 2.6 2.6 0.00 0.00 0.00 35 1019.7
20260503173950 70 171 0.9 1.7 0.00 0.00 0.00 34 1019.6
20260503173446 71 209 0.9 0.9 0.00 0.00 0.00 33 1019.7
20260503172943 71 265 0.9 0.9 0.00 0.00 0.00 33 1019.7
20260503172440 70 1 0.9 0.9 0.00 0.00 0.00 36 1019.8
20260503171937 69 279 1.7 1.7 0.00 0.00 0.00 33 1019.8
20260503171433 69 344 1.7 1.7 0.00 0.00 0.00 33 1020.0
20260503170931 69 232 1.7 2.6 0.00 0.00 0.00 34 1020.0
20260503170427 68 128 1.7 1.7 0.00 0.00 0.00 35 1020.3
20260503150819 65 247 1.7 1.7 0.00 0.00 0.00 39 1020.9
20260503150315 64 34 0.0 0.0 0.00 0.00 0.00 40 1021.1
20260503140240 60 48 1.7 1.7 0.00 0.00 0.00 50 1020.6
20260503131209 55 165 1.7 2.6 0.00 0.00 0.00 63 1020.5
20260503130707 54 123 0.9 1.7 0.00 0.00 0.00 64 1020.5
20260503130204 53 134 0.9 1.7 0.00 0.00 0.00 65 1020.4
20260503120130 48 25 0.9 0.9 0.00 0.00 0.00 95 1020.0
20260503110557 48 146 0.0 0.0 0.00 0.00 0.00 98 1019.3
20260503090444 46 146 0.0 0.0 0.00 0.00 0.00 97 1017.8
20260503081410 46 146 0.0 0.0 0.00 0.00 0.00 97 1017.3
20260503080908 46 146 0.0 0.0 0.00 0.00 0.00 97 1017.1
20260503080404 47 146 0.0 0.0 0.00 0.00 0.00 97 1017.3
20260503072840 47 146 0.0 0.0 0.00 0.00 0.00 96 1017.2
20260503072337 47 146 0.0 0.0 0.00 0.00 0.00 96 1016.9
20260503071834 47 146 0.0 0.0 0.00 0.00 0.00 96 1016.9
20260503071331 47 146 0.0 0.0 0.00 0.00 0.00 96 1017.0
20260503070827 47 146 0.0 0.0 0.00 0.00 0.00 96 1016.8
20260503070326 47 146 0.0 0.0 0.00 0.00 0.00 96 1016.9
20260503060250 49 146 0.0 0.0 0.00 0.00 0.00 94 1016.6
20260503054737 49 146 0.0 0.0 0.00 0.00 0.00 93 1016.5
20260503054234 50 146 0.0 0.0 0.00 0.00 0.00 93 1016.6
20260503053732 50 146 0.0 0.0 0.00 0.00 0.00 93 1016.3
20260503053231 50 146 0.0 0.0 0.00 0.00 0.00 92 1016.4
20260503052726 51 146 0.0 0.0 0.00 0.00 0.00 92 1016.4
20260503052223 51 146 0.0 0.0 0.00 0.00 0.00 90 1016.2
20260503051718 51 146 0.0 0.0 0.00 0.00 0.00 89 1016.3
20260503051217 52 146 0.0 0.0 0.00 0.00 0.00 88 1016.5
20260503050713 52 146 0.0 0.0 0.00 0.00 0.00 88 1016.3
20260503050209 53 146 0.0 0.0 0.00 0.00 0.00 88 1016.1
20260503045707 53 146 0.0 0.0 0.00 0.00 0.00 87 1016.3
20260503045204 53 146 0.0 0.0 0.00 0.00 0.00 86 1016.2
20260503044700 54 146 0.0 0.0 0.00 0.00 0.00 86 1016.3
20260503044158 54 146 0.0 0.0 0.00 0.00 0.00 85 1016.4
20260503043654 54 146 0.0 0.0 0.00 0.00 0.00 85 1016.3
20260503043152 54 146 0.0 0.0 0.00 0.00 0.00 86 1016.4
20260503042648 54 146 0.0 0.0 0.00 0.00 0.00 88 1016.2
20260503042144 54 146 0.0 0.0 0.00 0.00 0.00 87 1016.3
20260503041641 54 146 0.0 0.0 0.00 0.00 0.00 87 1016.3
20260503041139 54 146 0.0 0.0 0.00 0.00 0.00 86 1016.3
20260503040636 54 146 0.0 0.0 0.00 0.00 0.00 87 1016.3
20260503040133 54 146 0.0 0.0 0.00 0.00 0.00 88 1016.4
20260503035630 54 146 0.0 0.0 0.00 0.39 0.39 87 1016.1
20260503035128 54 146 0.9 0.9 0.00 0.39 0.39 88 1016.0
20260503034625 54 146 0.0 0.0 0.00 0.39 0.39 87 1015.9
20260503034122 54 146 0.0 0.9 0.00 0.39 0.39 87 1016.3
20260503033619 54 146 0.9 0.9 0.00 0.39 0.39 87 1016.4
20260503033117 54 146 0.0 0.0 0.00 0.39 0.39 87 1016.2
20260503032615 54 146 0.0 0.0 0.00 0.39 0.39 88 1016.2
20260503032113 54 146 0.0 0.0 0.00 0.39 0.39 86 1016.2
20260503031610 54 146 0.0 0.0 0.00 0.39 0.39 86 1016.1
20260503031108 53 146 0.0 0.0 0.00 0.39 0.39 87 1016.1
20260503030603 53 146 0.0 0.0 0.00 0.39 0.39 87 1016.0
20260503030100 53 146 0.0 0.0 0.00 0.39 0.39 88 1016.0
20260503025557 53 146 0.0 0.0 0.00 0.39 0.39 89 1015.8
20260503025055 53 146 0.0 0.0 0.00 0.39 0.39 90 1015.9
20260503024550 53 146 0.0 0.0 0.00 0.39 0.39 91 1015.8
20260503024048 52 146 0.0 0.0 0.00 0.39 0.39 90 1015.3
20260503023544 52 146 0.0 0.0 0.00 0.39 0.39 90 1015.4
20260503023042 53 146 0.0 0.0 0.00 0.39 0.39 90 1015.3
20260503022538 53 146 0.0 0.0 0.00 0.39 0.39 90 1015.1
20260503022033 53 146 0.0 0.0 0.00 0.39 0.39 89 1014.9
20260503021530 53 146 0.0 0.0 0.00 0.39 0.39 90 1015.0
20260503021027 53 146 0.0 0.0 0.00 0.39 0.39 90 1014.9
20260503020524 52 146 0.0 0.0 0.00 0.39 0.39 90 1014.8
20260503020021 52 146 0.0 0.0 0.00 0.39 0.39 90 1014.8
20260503015518 52 146 0.0 0.0 0.00 0.39 0.39 90 1014.6
20260503015015 52 146 0.0 0.0 0.00 0.39 0.39 90 1014.7
20260503014511 52 146 0.0 0.0 0.00 0.39 0.39 90 1014.6
20260503014009 51 146 0.0 0.0 0.00 0.39 0.39 91 1014.4
20260503013506 51 146 0.0 0.0 0.00 0.39 0.39 91 1014.5
20260503013003 51 146 0.0 0.0 0.00 0.39 0.39 90 1014.3
20260503012501 51 146 0.0 0.0 0.00 0.39 0.39 90 1014.2
20260503011956 51 146 0.0 0.0 0.00 0.39 0.39 91 1014.2
20260503011454 51 146 0.0 0.0 0.00 0.39 0.39 90 1014.1
20260503010951 51 146 0.0 0.0 0.00 0.39 0.39 89 1014.3
20260503010447 51 146 0.0 0.0 0.00 0.39 0.39 89 1014.2
20260503005944 51 146 0.0 0.0 0.00 0.39 0.39 89 1013.8
20260503005442 51 146 0.0 0.0 0.00 0.39 0.39 89 1013.9
20260503004938 51 146 0.0 0.0 0.00 0.39 0.39 88 1013.8
20260503004435 52 146 0.0 0.0 0.00 0.39 0.39 87 1013.8
20260503003933 52 146 0.0 0.0 0.00 0.39 0.39 87 1013.9
20260503003429 52 146 0.0 0.0 0.00 0.39 0.39 86 1013.8
20260503002927 53 146 0.0 0.0 0.00 0.39 0.39 85 1013.5
20260503002424 53 146 0.0 0.0 0.00 0.39 0.39 85 1013.6
20260503001920 54 146 0.0 0.0 0.00 0.39 0.39 83 1013.6
20260503001416 54 146 0.0 0.0 0.00 0.39 0.39 81 1013.5
20260503000914 55 146 0.0 0.0 0.00 0.39 0.39 79 1013.5
20260503000411 55 146 0.0 0.0 0.00 0.39 0.39 77 1013.3
20260502235908 56 146 0.0 0.0 0.00 0.39 0.39 77 1013.4
20260502235405 56 146 0.0 0.0 0.00 0.39 0.39 75 1013.5
20260502234903 57 146 0.0 0.0 0.00 0.39 0.39 75 1013.0
20260502234359 57 146 0.9 0.9 0.00 0.39 0.39 73 1013.1
20260502233856 57 146 0.0 0.0 0.00 0.39 0.39 73 1013.1
20260502233352 58 145 0.9 0.9 0.00 0.39 0.39 70 1012.7
20260502232849 58 145 0.9 0.9 0.00 0.39 0.39 69 1012.8
20260502232345 59 141 0.0 0.9 0.00 0.39 0.39 69 1012.9
20260502231842 59 150 0.9 0.9 0.00 0.39 0.39 67 1012.8
20260502231340 59 340 0.9 0.9 0.00 0.39 0.39 67 1012.7
20260502230838 59 165 1.7 1.7 0.00 0.39 0.39 67 1012.8
20260502230336 60 130 0.0 0.0 0.00 0.39 0.39 66 1012.7
20260502225832 59 137 0.9 0.9 0.00 0.39 0.39 68 1012.8
20260502225329 59 131 0.9 0.9 0.00 0.39 0.39 67 1012.8
20260502224826 60 146 1.7 1.7 0.00 0.39 0.39 66 1012.8
20260502224322 60 4 0.9 0.9 0.00 0.39 0.39 65 1013.0
20260502223820 60 52 0.9 0.9 0.00 0.39 0.39 67 1012.7
20260502223317 59 74 0.0 0.0 0.00 0.39 0.39 69 1012.7
20260502222815 59 149 0.9 0.9 0.00 0.39 0.39 70 1012.8
20260502222312 59 154 1.7 1.7 0.00 0.39 0.39 68 1012.8
20260502221808 59 25 0.9 1.7 0.00 0.39 0.39 69 1012.8
20260502221304 59 296 0.9 0.9 0.00 0.39 0.39 68 1012.7
20260502220801 59 24 1.7 1.7 0.00 0.39 0.39 69 1012.7
20260502220257 59 36 0.9 0.9 0.00 0.39 0.39 70 1012.8
20260502215754 59 44 2.6 3.5 0.00 0.39 0.39 68 1012.9
20260502215251 59 3 0.0 0.0 0.00 0.39 0.39 69 1012.8
20260502214748 58 345 0.9 0.9 0.00 0.39 0.39 71 1012.7
20260502214245 58 69 0.9 0.9 0.00 0.39 0.39 68 1012.7
20260502213742 58 152 0.9 0.9 0.00 0.39 0.39 70 1012.7
20260502213239 58 346 0.9 0.9 0.00 0.39 0.39 68 1012.5
20260502212738 58 40 0.9 0.9 0.00 0.39 0.39 70 1012.4
20260502212236 58 162 1.7 1.7 0.00 0.39 0.39 68 1012.4
20260502211732 58 24 0.9 1.7 0.00 0.39 0.39 69 1012.3
20260502211229 58 24 0.9 0.9 0.00 0.39 0.39 69 1012.2
20260502210726 58 18 1.7 2.6 0.00 0.39 0.39 68 1012.2
20260502210223 59 151 1.7 1.7 0.00 0.39 0.39 68 1012.5
20260502205720 59 4 3.5 5.2 0.00 0.39 0.39 67 1012.6
20260502205216 59 199 1.7 1.7 0.00 0.39 0.39 67 1012.5
20260502204714 59 27 0.9 0.9 0.00 0.39 0.39 66 1012.6
20260502204211 59 28 1.7 1.7 0.00 0.39 0.39 67 1012.6
20260502203708 59 343 3.5 5.2 0.00 0.39 0.39 66 1012.6
20260502203206 59 17 3.5 5.2 0.00 0.39 0.39 66 1012.6
20260502202700 59 115 1.7 1.7 0.00 0.39 0.39 66 1012.4
20260502202159 59 129 3.5 3.5 0.00 0.39 0.39 68 1012.6
20260502201656 58 21 1.7 2.6 0.00 0.39 0.39 69 1012.4
20260502201152 57 70 0.9 0.9 0.00 0.39 0.39 70 1012.6
20260502200648 57 48 0.9 1.7 0.00 0.39 0.39 69 1012.6